Weather History for Montpelier, VT

Change the Weather History Date:

Thursday, February 28, 2013

  Actual Average Record
Temperature  
Mean Temperature 34 °F 23 °F  
Max Temperature 38 °F 34 °F 49 °F (1954)
Min Temperature 29 °F 13 °F -14 °F (1964)
Degree Days  
Heating Degree Days 31 42  
Month to date heating degree days 1204 1262  
Since 1 July heating degree days 5549 5908  
Moisture  
Dew Point 31 °F    
Average Humidity 91    
Maximum Humidity 100    
Minimum Humidity 82    
Precipitation  
Precipitation 0.06 in 0.07 in 0.82 in (1984)
Month to date precipitation 1.29 2.04  
Year to date precipitation 2.24 4.49  
Sea Level Pressure  
Sea Level Pressure 29.61 in    
Wind  
Wind Speed 1 mph (East)    
Max Wind Speed 6 mph    
Max Gust Speed 7 mph    
Visibility 7 miles    
Events Rain , Snow    
T = Trace of Precipitation, MM = Missing Value Source: NWS Daily Summary

Daily Weather History Graph

Daily Weather History Graph

Search for Another Location

Airport:

Trip Planner

Search our weather history database for the weather conditions in past years. The results will help you decide how hot, cold, wet, or windy it might be!

Date:

Astronomy

Feb. 28, 2013 Rise Set
Actual Time 6:28 AM EST 5:37 PM EST
Civil Twilight 5:59 AM EST 6:06 PM EST
Nautical Twilight 5:26 AM EST 6:40 PM EST
Astronomical Twilight 4:52 AM EST 7:13 PM EST
Moon 9:11 PM EST (2/28) 7:28 AM EST (2/28)
Length of Visible Light 12h 06m
Length of Day
11h 08m
Waning Gibbous, 91% of the Moon is Illuminated
Feb 28
Waning Gibbous
Mar 4
Last Quarter
Mar 11
New
Mar 19
First Quarter
Mar 27
Full

Hourly Weather History & Observations

Time (EST) Temp. Windchill Dew Point Humidity Pressure Visibility Wind Dir Wind Speed Gust Speed Precip Events Conditions
12:40 AM 30.2 °F - 30.2 °F 100% 29.64 in 1.2 mi Calm Calm - 0.02 in Snow Light Snow
12:48 AM 30.2 °F - 30.2 °F 100% 29.63 in 1.0 mi Calm Calm - 0.02 in Snow Light Snow
12:51 AM 30.0 °F 26.5 °F 30.0 °F 100% 29.68 in 1.0 mi North 3.5 mph - 0.02 in Snow Light Snow
12:58 AM 30.2 °F 26.7 °F 30.2 °F 100% 29.63 in 0.8 mi North 3.5 mph - N/A Snow Light Snow
1:15 AM 30.2 °F - 30.2 °F 100% 29.62 in 1.0 mi Calm Calm - 0.02 in Snow Light Snow
1:22 AM 30.2 °F - 30.2 °F 100% 29.62 in 1.0 mi Calm Calm - 0.02 in Snow Light Snow
1:29 AM 30.2 °F - 30.2 °F 100% 29.62 in 1.2 mi Calm Calm - 0.03 in Snow Light Snow
1:40 AM 28.4 °F - 28.4 °F 100% 29.61 in 1.5 mi Calm Calm - 0.03 in Snow Light Snow
1:51 AM 28.9 °F - 28.9 °F 100% 29.65 in 1.8 mi Calm Calm - 0.03 in Snow Light Snow
1:56 AM 28.4 °F - 28.4 °F 100% 29.61 in 2.0 mi Calm Calm - 0.00 in Snow Light Snow
2:27 AM 28.4 °F - 28.4 °F 100% 29.60 in 1.5 mi Calm Calm - 0.01 in Snow Light Snow
2:51 AM 28.4 °F - 28.4 °F 100% 29.59 in 1.8 mi Calm Calm - N/A Snow Light Snow
3:00 AM 28.4 °F - 28.4 °F 100% 29.59 in 2.0 mi Calm Calm - 0.00 in Snow Light Snow
3:40 AM 28.4 °F - 28.4 °F 100% 29.58 in 3.0 mi Calm Calm - 0.00 in Snow Light Snow
3:51 AM 28.9 °F - 28.9 °F 100% 29.63 in 5.0 mi Calm Calm - 0.00 in Snow Light Snow
4:05 AM 28.4 °F - 28.4 °F 100% 29.58 in 4.0 mi Calm Calm - 0.00 in Snow Light Snow
4:38 AM 28.4 °F - 28.4 °F 100% 29.59 in 5.0 mi Calm Calm - 0.00 in   Overcast
4:51 AM 28.9 °F - 28.9 °F 100% 29.63 in 8.0 mi Calm Calm - 0.00 in   Overcast
5:01 AM 28.4 °F - 28.4 °F 100% 29.59 in 9.0 mi Calm Calm - N/A   Overcast
5:24 AM 28.4 °F - 28.4 °F 100% 29.59 in 10.0 mi Calm Calm - N/A   Overcast
5:51 AM 28.9 °F - 28.9 °F 100% 29.64 in 7.0 mi Calm Calm - N/A   Overcast
6:04 AM 28.4 °F - 28.4 °F 100% 29.59 in 8.0 mi Calm Calm - N/A   Overcast
6:51 AM 28.9 °F - 28.9 °F 100% 29.65 in 10.0 mi Calm Calm - N/A   Overcast
7:24 AM 30.2 °F 26.7 °F 28.4 °F 93% 29.61 in 10.0 mi SE 3.5 mph - N/A   Overcast
7:51 AM 30.0 °F 26.5 °F 28.9 °F 96% 29.65 in 10.0 mi SSE 3.5 mph - N/A   Overcast
8:05 AM 30.2 °F - 28.4 °F 93% 29.61 in 10.0 mi Calm Calm - N/A   Overcast
8:51 AM 32.0 °F 28.7 °F 30.0 °F 92% 29.65 in 10.0 mi SE 3.5 mph - N/A   Overcast
9:39 AM 33.8 °F 30.8 °F 30.2 °F 87% 29.60 in 10.0 mi SSE 3.5 mph - N/A   Overcast
9:51 AM 32.0 °F - 30.9 °F 96% 29.64 in 10.0 mi Calm Calm - N/A   Overcast
10:02 AM 33.8 °F - 30.2 °F 87% 29.60 in 10.0 mi Calm Calm - N/A   Overcast
10:51 AM 35.1 °F - 30.9 °F 85% 29.64 in 10.0 mi Calm Calm - N/A   Overcast
11:51 AM 35.1 °F - 33.1 °F 92% 29.63 in 10.0 mi Calm Calm - N/A   Overcast
12:17 PM 35.6 °F - 33.8 °F 93% 29.59 in 10.0 mi Calm Calm - N/A   Overcast
12:51 PM 37.0 °F 34.5 °F 33.1 °F 86% 29.62 in 10.0 mi NE 3.5 mph - N/A   Mostly Cloudy
1:51 PM 37.0 °F 34.5 °F 32.0 °F 82% 29.62 in 10.0 mi NE 3.5 mph - N/A   Overcast
2:51 PM 37.0 °F - 33.1 °F 86% 29.61 in 10.0 mi Calm Calm - N/A   Overcast
3:51 PM 37.9 °F - 33.1 °F 83% 29.62 in 8.0 mi Calm Calm - 0.00 in Rain Light Rain
4:07 PM 37.4 °F - 33.8 °F 87% 29.58 in 8.0 mi Calm Calm - 0.01 in Rain Light Rain
4:14 PM 37.4 °F - 33.8 °F 87% 29.58 in 9.0 mi Calm Calm - 0.01 in Rain Light Rain
4:51 PM 36.0 °F 33.3 °F 34.0 °F 93% 29.61 in 10.0 mi West 3.5 mph - 0.01 in   Overcast
5:51 PM 35.1 °F - 34.0 °F 96% 29.62 in 10.0 mi Calm Calm - N/A   Overcast
6:24 PM 35.6 °F - 33.8 °F 93% 29.59 in 8.0 mi Calm Calm - 0.00 in Rain Light Rain
6:51 PM 34.0 °F - 34.0 °F 100% 29.64 in 9.0 mi Calm Calm - 0.00 in   Overcast
6:58 PM 33.8 °F - 33.8 °F 100% 29.59 in 9.0 mi Calm Calm - N/A   Overcast
7:09 PM 33.8 °F - 33.8 °F 100% 29.59 in 10.0 mi Calm Calm - N/A   Overcast
7:51 PM 34.0 °F - 34.0 °F 100% 29.63 in 6.0 mi Calm Calm - N/A   Overcast
8:03 PM 33.8 °F - 33.8 °F 100% 29.59 in 6.0 mi Calm Calm - N/A   Overcast
8:51 PM 34.0 °F - 34.0 °F 100% 29.63 in 6.0 mi Calm Calm - N/A   Overcast
9:44 PM 33.8 °F - 33.8 °F 100% 29.59 in 8.0 mi Calm Calm - N/A   Overcast
9:51 PM 33.1 °F - 33.1 °F 100% 29.63 in 8.0 mi Calm Calm - N/A   Overcast
10:51 PM 33.1 °F - 33.1 °F 100% 29.63 in 9.0 mi Calm Calm - N/A   Overcast
11:07 PM 33.8 °F - 33.8 °F 100% 29.59 in 9.0 mi Calm Calm - N/A   Overcast
11:47 PM 33.8 °F - 32.0 °F 93% 29.58 in 9.0 mi Calm Calm - N/A   Overcast
11:51 PM 32.0 °F - 32.0 °F 100% 29.62 in 9.0 mi Calm Calm - N/A   Overcast